Location: El Diablo
(32.4667°N, 116.4500°W)
Time: 02:00:41
(UTC+00:00)

JB-3 - Pass Details

Date: 10 September 2024
Orbit: 505 x 557 km, 97.2° (Epoch: 06 October)

Event Time Altitude Azimuth Distance (km) Brightness Sun altitude
Rises 12:22:35 0° 163° (SSE) 2,629 7.8 -14.1°
Reaches altitude 10° 12:24:40 10° 162° (SSE) 1,754 6.9 -13.7°
Maximum altitude 12:28:26 73° 78° (ENE) 559 4.5 -13.0°
Drops below altitude 10° 12:32:18 10° 353° (N) 1,800 7.0 -12.2°
Sets 12:34:27 0° 352° (N) 2,705 7.9 -11.7°
